Weather in Glazov

Russia / Udmurt Republic     58°08′26″N   52°40′27″E
В апреле 2022 года жителям России запретили посещать сайт meteo.paraplan.net по решению Генеральной прокуратуры. Аудитория сайта уменьшилась в 10 раз. Владельцы сайта не видят смысла в поддержке погодного сервера в таких условиях. Сайт будет закрыт в октябре.
temp.,
°C
wind,
m/s
gust,
m/s
humid.,
%
clouds,
%
prec.,
mm/h
press.,
hPa
HPBL,
m
5 october, wed
wed501:00+8se3857100 0.0 1027239
04:00+6se3964100 0.0 1026198
07:00+6sse2772100 0.3 1026301
10:00+6s51283100 0.8 10251170
13:00+7sse51162100 0.1 1023846
16:00+6s41083100 0.1 1023816
19:00+6sse396997 0.1 1022540
22:00+7sse3962100 0.1 1021425
6 october, thu
thu601:00+7sse3960100 0.0 1019419
04:00+6sse3963100 0.0 1018369
07:00+6se377583 0.0 1017334
10:00+8sse3688100 0.0 1016458
13:00+7se2597100 0.9 1014328
16:00+8sse2595100 1.1 1013323
19:00+7sw249383 0.6 1014124
22:00+6wsw269597 0.6 1013249
7 october, fri
fri701:00+6wsw269696 0.1 1013271
04:00+6wsw2796100 0.5 1013358
07:00+5sw379588 0.1 1012331
10:00+6sw4892100 0.1 1011449
13:00+8sw5981100 0.1 1009998
16:00+6ssw41093100 2.3 10071088
19:00+6w3997100 1.5 1008509
22:00+6wnw3893100 1.6 1009544
8 october, sat
sat801:00+6w399598 0.3 1009379
04:00+7wnw41095100 0.4 1011480
07:00+6wnw51189100 0.0 1013684
10:00+7wnw4983100 0.1 10151075
13:00+8wnw4884100 0.1 10161084
16:00+8w488189 0.1 1017798
19:00+6w398281 0.0 1018247
22:00+7wsw41088100 0.0 1018489
9 october, sun
sun901:00+7sw31088100 0.0 1018442
04:00+7sw41092100 0.0 1017448
07:00+5sw3109746 0.0 1018338
10:00+8sw41085100 0.0 1017507
13:00+11sw51072100 0.0 1016755
16:00+11sw51172100 0.0 1016862
19:00+10sw51378100 0.0 1016675
22:00+8sw51382100 0.0 1016611